Terug naar catalogus

CZ-6A DEB

ActiefPO
NORAD 61130·DEBRIS·🇨🇳 China

Gelanceerd Aug 6, 2024 vanaf Taiyuan Satellite Launch Center

Loading…

Volgende Passages (komende 24 uur)

TLE

VersSource: Space-Track

Epoch: Sep 14, 2026, 08:33 UTC

1 61130U 24140PY  26257.35629047  .00001701  00000-0  62259-3 0  9996
2 61130  88.6248 228.9276 0067375 146.3276 214.2229 14.31200660107612

Volg CZ-6A DEB in realtime met AllMySat

Download on the App Store